Location: Carrières
(48.9495°N, 2.0407°E)
Time: 14:32:51
(UTC+00:00)

Vanguard 1 Rocket - Pass Details

Date: 13 April 2024
Orbit: 651 x 4220 km, 34.3° (Epoch: 19 May)

Event Time Altitude Azimuth Distance (km) Brightness Sun altitude
Exits shadow 02:16:52 27° 200° (SSW) 5,187 10.6 -23.8°
Drops below altitude 10° 02:32:14 10° 162° (SSE) 7,295 11.7 -22.1°
Sets 02:39:50 0° 153° (SSE) 8,453 12.2 -21.2°
